Overview Statistics Trail Chart Weather Telemetry Raw packets
 

This is the latest recevied weather packets stored in our database for station/object KW4UJ. If no packets are shown the sender has not sent any weather packets the latest 10 day(s).

<< 15 16 17 18 19 20 21 >>
Time Temp. Humidity Pressure Rain* Wind** Luminosity Snow
1788532601 27.22° C 76% 1014.9 hPa 0 mm - 54 W/m² -
1788532298 27.22° C 77% 1014.9 hPa 0 mm - 54 W/m² -
1788531995 27.22° C 80% 1014.7 hPa 0 mm - 54 W/m² -
1788531690 26.67° C 81% 1014.9 hPa 0 mm - 53 W/m² -
1788531384 26.67° C 83% 1014.7 hPa 0 mm - 53 W/m² -
1788531080 26.67° C 81% 1014.8 hPa 0 mm - 53 W/m² -
1788530776 26.11° C 84% 1015 hPa 0 mm - 52 W/m² -
1788530475 25.56° C 86% 1014.8 hPa 0 mm - 51 W/m² -
1788530175 25.56° C 86% 1014.8 hPa 0 mm - 74 W/m² -
1788529871 25° C 88% 1014.8 hPa 0 mm - 54 W/m² -
1788529567 25° C 90% 1014.7 hPa 0 mm - 58 W/m² -
1788529266 24.44° C 91% 1014.8 hPa 0 mm - 60 W/m² -
1788528961 24.44° C 92% 1014.8 hPa 0 mm - 50 W/m² -
1788528657 23.89° C 93% 1015 hPa 0 mm - 48 W/m² -
1788528356 23.89° C 94% 1014.5 hPa 0 mm - 89 W/m² -
1788528051 23.89° C 95% 1014.7 hPa 0 mm - 46 W/m² -
1788527754 23.33° C 97% 1014.7 hPa 0 mm - 264 W/m² -
1788527447 23.33° C 98% 1014.8 hPa 0 mm - 269 W/m² -
1788527146 23.33° C 99% 1014.8 hPa 0 mm - 262 W/m² -
1788526841 22.22° C 99% 1015 hPa 0 mm - 235 W/m² -
1788526538 22.22° C 99% 1015.2 hPa 0 mm - 60 W/m² -
1788526238 22.78° C 99% 1015.2 hPa 0 mm - 67 W/m² -
1788525933 22.22° C 99% 1015.2 hPa 0 mm - 45 W/m² -
1788525629 22.22° C 99% 1015.1 hPa 0 mm - 43 W/m² -
1788525329 22.22° C 99% 1015.1 hPa 0 mm - 42 W/m² -

* Rain latest hour (hover to see other rain measurements)
** Current wind speed in m/s (hover to see current wind gust speed)